User: anonymous   Login
Location: Radomski Observatory
(40.2854°N, 79.5145°W)
Time: 08:56:04
(UTC-04:00)
Language:

Cosmos 1072 Rocket - Orbit

View from above orbital plane
View from above orbital plane
View from above satellite
View from above satellite

Ground track
Ground track

The orbit data is extracted from the following two-line orbital elements,

1 11239U 79003B   17145.48927071 -.00000009 +00000-0 -25849-4 0  9994
2 11239 082.9373 105.4205 0042138 095.9714 043.0324 13.75805357924476
Epoch (UTC): 25 May 2017 11:44:32
Eccentricity: 0.0042138
inclination: 82.9373°
perigee height: 948 km
apogee height: 1010 km
right ascension of ascending node: 105.4205°
argument of perigee: 95.9714°
revolutions per day: 13.75805357
mean anomaly at epoch: 43.0324°
orbit number at epoch: 92447

The dashed part of the orbit path shows where the satellite is in the earth's shadow,  

DLR